Погода в Лохвицах

Россия / Амурская область     50°44′07″N   128°12′45″E
темп.,
°C
ветер,
м/с
пор.,
м/с
влажн.,
%
обл.,
%
осадки,
мм/ч
давл.,
гПа
погр.,
м
20 апреля, вт
вт2000:00−1сз816350 0.0 10131455
03:00−2сз1018340 0.0 10131321
06:00−3сз1017350 0.0 10131391
09:00+1сз1117260 0.0 10141459
12:00+6сз913150 0.0 10151763
15:00+9сз811100 0.0 10141766
18:00+9сз47140 0.0 10141286
21:00+5ююв22215 0.0 101510
21 апреля, ср
ср2100:00+4ю453798 0.0 101562
03:00+2юв46487 0.0 101473
06:00+2ююв47549 0.0 1014110
09:00+10ю67355 0.0 1014325
12:00+16ю46280 0.0 1013965
15:00+22ююз810214 0.0 10101822
18:00+20ю813270 0.0 1009735
21:00+15ю615380 0.0 1010266
22 апреля, чт
чт2200:00+13ю5143873 0.0 1011250
03:00+12ююв7164379 0.0 1010271
06:00+11ююв71647100 0.0 1010314
09:00+16ю9154066 0.0 1010607
12:00+22ююз9122890 0.1 10101339
15:00+25юз9122484 0.1 10102526
18:00+17ссз81038100 0.0 1014630
21:00+11ссз81053100 0.0 1020628
23 апреля, пт
пт2300:00+6ссз71166100 0.0 1024653
03:00+5ссз61141100 0.0 1026729
06:00+3ссз71140100 0.3 1028715
09:00+3с7936100 0.6 1030851
12:00+7ссз792598 0.0 10301430
15:00+8с9101799 0.0 10291764
18:00+8с8101851 0.0 10302033
21:00+4с612264 0.0 1032570
24 апреля, сб
сб2400:00+1с38380 0.0 1033181
03:00−1сз37470 0.0 1032145
06:00−2сз310500 0.0 1032251
09:00+6сз710260 0.0 10301191
12:00+9сз9132320 0.0 10272580
15:00+11ссз101419100 0.0 10253218
18:00+10ссз81425100 0.0 10233047
21:00+7ссз714345 0.0 1024830